GEFSNGP_500_meanwind_276.txt.gz
Wind_Speed
30 28 25 26 26 25 25 25 24 23 22 20 22 23 21 22 21 20 20 17 17 18 18 17 17 16 16 16 15 14 13 13 12 11 11 10 9 9 9 10 9 9 9 10
32 31 29 29 28 28 27 27 27 26 25 24 25 25 24 25 23 22 20 19 19 19 19 19 18 17 17 16 16 15 13 12 12 12 11 10 10 10 10 11 11 11 11 11
34 33 33 33 30 30 29 28 28 28 27 27 28 27 26 26 25 24 23 22 20 20 20 20 20 18 18 17 17 15 14 13 13 13 12 12 12 12 12 12 12 12 12 12
34 34 37 34 32 32 33 32 32 32 30 30 30 30 29 28 27 27 25 24 22 21 22 21 20 19 18 18 17 16 15 15 14 14 13 13 13 13 13 13 14 14 14 14
34 34 35 34 32 31 32 33 33 34 33 32 31 31 31 31 30 30 28 26 25 24 23 22 21 20 20 19 18 17 16 16 15 15 14 14 15 15 15 16 15 15 15 15
36 35 35 34 31 31 32 35 34 33 33 33 32 32 32 33 31 31 29 28 26 25 24 23 22 21 21 20 19 18 18 17 17 17 17 16 16 16 17 16 16 16 16 16
37 37 36 33 32 31 33 35 34 34 34 34 33 32 32 33 32 31 30 29 28 26 25 25 23 22 21 20 20 20 20 19 19 19 18 18 18 18 18 18 18 18 18 18
37 37 37 35 34 35 35 35 35 35 34 34 33 32 32 32 32 31 30 30 29 27 26 25 25 24 23 22 22 21 21 20 21 21 20 20 20 20 20 20 20 20 20 20
37 36 36 36 36 36 37 37 36 36 36 35 35 34 33 33 32 32 32 31 30 28 28 27 26 26 25 25 24 24 23 22 22 22 22 22 22 22 22 22 22 22 22 22
38 39 38 36 36 37 38 38 38 37 36 36 36 35 34 34 33 33 33 32 31 29 28 28 29 28 27 27 26 26 25 24 24 24 23 23 23 23 23 23 23 23 24 24
39 38 38 37 37 37 38 39 38 37 36 35 36 35 34 33 33 32 32 32 31 31 30 30 30 30 30 29 28 28 27 26 25 24 24 24 24 24 24 24 25 25 26 26
37 38 38 38 37 38 39 39 39 38 38 36 36 35 35 34 33 32 32 31 32 31 31 31 31 31 31 31 30 30 29 28 27 26 26 26 25 25 25 25 26 27 28 28
36 37 38 37 38 38 39 38 38 38 37 37 36 35 34 34 34 34 33 32 32 32 31 32 32 32 32 31 31 30 30 29 28 28 28 28 27 27 27 27 28 29 30 30
34 34 35 35 36 36 36 37 37 37 37 36 36 36 35 34 34 34 34 33 32 32 33 32 32 32 32 32 32 31 31 31 31 31 30 29 30 29 29 29 30 30 31 31
31 32 33 34 35 36 35 35 36 36 36 36 36 36 35 34 34 34 34 34 33 33 33 33 32 31 32 32 32 32 32 32 32 33 33 32 32 32 32 32 32 32 33 32
32 32 32 33 34 34 34 34 35 36 35 35 35 35 35 35 35 35 34 34 34 34 33 33 32 31 32 32 33 33 33 33 34 34 34 33 33 34 34 34 33 34 33 33
30 31 31 32 32 32 32 34 35 35 33 33 33 34 35 35 35 36 35 34 34 34 33 33 33 33 33 34 34 34 35 35 35 35 35 35 34 34 35 35 35 35 34 33
29 30 31 31 31 32 32 32 33 32 32 32 32 33 34 35 34 34 34 35 34 34 33 33 33 34 34 34 34 35 35 36 36 36 36 35 35 34 35 35 35 35 34 33
28 29 30 31 31 31 31 31 31 32 31 31 31 32 32 33 33 33 34 34 34 34 34 34 34 35 35 34 34 35 36 36 36 36 35 35 34 34 35 35 35 35 35 33
26 26 28 29 30 31 31 31 31 31 31 31 31 31 31 32 32 32 32 32 32 33 33 34 34 35 35 35 35 35 35 35 35 35 34 33 33 34 34 34 34 34 34 34
24 24 25 27 28 29 29 30 30 30 29 30 30 30 30 30 30 30 31 31 31 32 32 33 34 34 35 36 37 36 36 35 35 34 33 33 33 32 32 32 33 33 33 32
22 22 23 24 25 24 26 27 28 28 28 28 28 29 29 29 29 30 30 31 32 32 33 33 33 34 34 36 37 37 36 36 34 33 33 32 32 31 30 30 31 32 33 31
18 19 21 21 22 24 25 25 25 27 27 28 28 28 28 28 28 28 29 30 31 32 33 33 33 33 34 35 35 36 35 34 32 32 31 31 31 32 32 32 32 31 30 31
15 17 18 18 19 20 21 22 23 24 25 26 27 27 27 27 27 27 27 28 29 31 32 32 32 33 33 32 31 32 32 31 30 30 30 30 30 30 31 31 30 29 29 30
13 15 16 17 18 18 19 19 20 21 22 23 23 24 24 25 26 26 26 26 27 28 29 29 29 28 29 29 28 27 27 28 29 29 30 30 31 31 31 30 29 30 30 30
11 12 13 14 15 16 17 17 18 18 19 20 21 22 23 24 24 24 24 25 26 26 26 26 26 26 25 25 25 26 26 27 28 28 29 30 31 31 30 29 30 31 32 31
9 10 11 12 13 13 14 14 15 16 16 17 18 19 19 20 21 21 22 22 23 23 24 25 25 24 23 23 23 23 24 25 26 27 28 28 29 29 29 30 31 32 32 33

GEFSNGP_500_meanwind_282.txt.gz
Wind_Speed
28 28 27 27 27 27 27 26 25 24 23 21 21 21 21 20 19 18 17 16 15 14 14 13 12 11 10 9 9 9 9 9 9 9 9 8 9 8 8 8 8 8 8 9
32 31 31 31 30 30 30 30 28 27 26 24 23 23 23 23 22 20 18 17 16 16 16 15 14 14 12 11 10 10 10 10 10 10 10 10 10 9 8 8 8 8 9 10
35 34 33 33 31 31 31 31 31 30 28 26 27 27 26 26 26 23 22 21 19 19 19 18 17 16 14 13 13 12 12 11 12 11 11 11 11 11 10 10 10 10 10 11
36 34 36 33 33 33 33 33 33 32 30 28 28 27 28 28 27 26 24 23 21 21 21 20 20 18 17 15 14 14 13 13 13 13 13 13 12 12 12 11 11 11 12 12
37 37 37 34 33 33 34 33 33 33 32 32 31 30 30 28 28 28 26 25 24 23 22 22 21 21 20 18 17 16 15 15 14 14 14 14 14 13 13 13 13 13 14 14
37 37 37 33 31 32 34 35 33 34 35 34 34 34 32 31 32 30 29 27 26 25 24 23 23 23 22 20 19 19 18 17 17 17 16 16 15 15 15 15 15 15 15 16
37 36 36 32 32 32 34 35 34 35 36 35 36 36 34 34 34 32 30 29 28 26 25 24 24 24 24 23 22 21 20 19 18 17 17 17 17 17 17 17 18 17 17 17
38 38 37 33 33 34 34 34 35 35 35 36 36 36 36 35 35 33 32 31 30 28 26 25 26 25 25 24 24 24 23 22 21 20 20 19 19 19 19 19 19 19 19 19
39 39 37 35 35 34 34 35 35 34 35 35 36 36 36 36 35 34 34 31 30 29 28 27 26 26 26 26 25 24 25 24 24 23 22 22 21 21 21 21 21 21 21 20
40 40 39 38 37 36 35 36 36 36 35 35 36 36 37 37 35 34 33 32 31 30 29 28 28 28 27 27 26 26 25 25 25 25 25 24 23 22 23 23 22 22 22 22
39 38 38 38 38 38 37 36 36 36 37 36 36 37 37 36 36 35 32 32 31 31 30 28 28 28 27 27 27 27 27 27 27 27 26 25 25 25 24 24 24 24 23 23
37 37 38 38 38 38 38 38 38 38 38 38 37 36 37 36 36 35 34 33 32 32 30 29 29 29 28 28 28 28 28 27 27 27 27 27 27 27 27 26 26 26 25 25
37 37 38 38 38 39 39 39 38 38 39 39 38 37 37 36 36 37 36 35 35 33 31 31 30 29 28 28 28 28 28 28 28 28 28 28 28 28 28 28 29 28 28 27
36 36 37 37 37 38 39 39 38 38 38 39 38 38 37 37 37 37 37 37 36 35 34 33 32 31 30 29 29 29 29 29 29 29 29 30 30 30 30 30 30 30 30 30
34 35 36 35 36 37 38 37 36 36 37 36 37 38 37 37 37 37 36 37 37 36 36 34 33 32 32 31 31 30 30 30 30 31 31 31 31 31 31 31 31 31 32 32
32 33 34 35 35 35 35 36 36 36 37 36 36 36 36 36 35 35 35 36 36 35 34 34 34 34 33 33 32 32 31 31 32 32 32 32 32 32 32 32 32 33 33 33
32 32 33 33 33 33 33 34 34 35 35 34 34 36 35 35 35 34 35 35 35 34 34 35 35 34 34 34 34 34 33 32 33 33 34 34 34 34 34 34 34 34 34 34
29 29 30 31 31 31 31 32 31 31 32 32 33 34 34 34 33 33 33 34 34 34 33 33 33 34 34 35 35 35 35 34 33 33 34 35 35 35 35 35 36 36 36 36
25 26 27 29 29 29 28 29 30 30 31 32 32 31 31 31 31 31 32 32 32 32 32 33 33 32 32 33 33 34 35 34 34 33 33 34 34 35 36 36 36 36 36 35
21 22 24 24 25 25 25 26 28 29 29 29 30 30 30 30 30 30 30 30 30 31 32 32 32 32 32 32 32 32 32 32 33 33 34 34 35 34 35 35 35 36 35 34
19 20 20 20 21 22 23 24 24 25 27 28 28 28 29 28 28 29 29 28 29 30 31 31 31 31 31 31 32 32 32 32 33 33 34 34 34 34 33 33 32 31 32 32
17 18 18 18 19 21 21 22 23 23 24 25 25 26 27 27 27 27 27 28 27 28 28 29 29 29 30 30 31 32 32 32 32 32 33 34 34 33 32 32 31 29 30 30
15 16 16 17 18 19 20 20 21 21 22 22 23 24 25 26 26 25 25 26 26 26 27 27 28 29 29 30 31 31 31 31 32 32 32 32 32 32 31 31 30 30 30 31
14 14 15 15 15 16 17 18 19 20 21 21 22 23 23 23 23 24 24 24 25 25 25 26 26 27 28 28 29 29 29 30 30 31 31 31 31 31 30 30 29 29 31 31
12 13 13 13 13 13 14 16 17 18 19 19 20 20 21 21 21 21 22 23 23 24 25 25 26 25 25 25 26 27 27 28 29 29 29 30 29 29 28 28 28 29 29 29
10 11 12 11 12 12 13 14 15 15 16 17 17 18 19 20 20 20 20 21 22 23 23 23 23 23 24 25 25 25 25 26 27 28 28 28 27 26 27 27 27 27 28 28
9 9 10 10 9 9 10 11 11 12 14 15 15 16 17 17 17 17 18 19 19 20 20 20 21 21 21 22 23 23 24 24 25 25 25 25 24 24 25 26 27 27 28 29

GEFSNGP_500_meanwind_288.txt.gz
Wind_Speed
27 27 27 27 27 26 27 26 26 24 23 22 20 19 18 18 17 17 17 17 16 15 15 15 14 13 13 13 12 12 12 12 13 12 11 11 11 10 10 10 10 9 9 10
29 29 29 29 28 28 29 28 28 27 26 25 24 23 22 20 19 19 19 19 18 17 16 16 16 16 15 15 15 14 14 14 14 14 13 12 13 12 12 12 11 11 11 11
31 31 31 32 30 30 30 30 30 29 28 28 28 27 26 24 23 22 22 22 21 19 18 19 18 18 18 18 17 16 16 15 15 15 15 15 14 14 14 14 13 13 13 13
33 33 34 32 32 33 32 32 32 32 30 30 30 29 28 27 26 25 24 24 23 22 21 21 21 21 21 21 19 18 18 17 17 17 17 17 17 16 16 16 16 15 14 15
35 36 36 34 33 34 34 34 34 34 33 33 32 32 30 29 29 27 27 26 25 24 24 24 24 23 23 22 21 20 19 18 19 19 18 18 18 18 18 18 18 17 17 16
38 38 38 36 35 35 36 36 34 35 35 35 34 33 32 31 31 30 30 28 28 27 26 26 26 25 24 23 23 21 20 20 20 20 19 19 19 19 19 19 19 19 18 17
39 40 40 38 37 36 37 36 35 35 35 35 34 34 33 32 32 32 31 31 30 29 29 28 28 28 26 25 24 23 23 22 21 21 21 21 21 21 21 20 20 20 19 19
39 40 40 38 38 38 38 37 36 35 35 35 35 34 34 34 34 34 33 32 32 31 30 30 30 30 29 28 26 24 24 24 23 23 23 23 23 23 23 22 21 21 21 21
40 40 39 39 39 39 38 38 37 36 36 36 35 35 35 35 35 35 35 34 33 32 32 31 31 31 30 30 28 27 27 26 26 26 25 25 25 25 25 24 23 23 22 22
39 39 38 38 38 38 38 38 38 38 38 37 36 36 36 36 35 36 35 35 34 34 33 32 32 32 31 30 30 29 29 28 28 28 28 27 27 27 26 25 25 24 23 22
39 39 39 39 39 39 39 39 39 38 39 39 38 37 37 37 36 36 36 36 36 35 34 33 33 32 31 31 30 30 30 30 30 30 28 28 28 28 28 28 27 27 26 25
39 39 40 40 39 39 39 39 39 38 39 39 39 38 38 38 37 37 37 36 36 35 34 34 33 33 32 31 31 32 31 30 31 31 31 30 28 28 28 28 27 27 28 27
38 38 39 40 39 38 38 38 39 39 39 38 37 37 37 37 37 36 36 37 36 36 35 35 35 34 34 34 35 34 34 34 33 33 32 31 30 30 29 29 29 28 28 29
38 38 38 39 40 39 38 38 38 39 38 37 37 37 37 37 35 34 35 36 36 36 35 35 35 35 35 36 36 35 35 35 34 33 33 33 32 31 31 30 30 30 30 31
38 38 38 39 39 40 39 39 40 39 39 37 37 38 38 36 34 34 34 34 34 35 35 35 35 35 35 35 35 34 35 34 34 33 32 32 32 32 32 32 33 32 32 33
36 37 37 38 38 39 39 39 39 38 38 38 37 37 35 34 33 33 34 34 33 34 35 35 35 35 35 34 35 35 35 34 34 33 33 33 33 33 33 34 34 34 34 35
36 36 36 36 37 37 37 37 37 36 36 36 35 34 34 34 34 34 34 34 34 34 34 34 34 34 34 35 35 36 36 36 36 35 35 35 35 34 35 34 35 35 35 36
33 34 34 33 33 33 34 34 33 33 33 33 34 34 33 33 33 34 33 34 34 34 34 34 34 34 34 35 36 36 37 36 36 36 35 36 35 34 34 35 36 36 36 37
29 28 29 30 30 29 30 30 30 30 31 31 32 32 33 33 33 33 33 32 33 34 34 34 33 33 34 34 35 35 35 35 36 36 37 37 36 36 36 36 36 37 36 37
24 24 25 25 26 27 27 27 27 27 28 29 30 31 31 31 32 32 32 32 33 33 33 34 33 33 33 34 34 35 35 35 35 36 36 36 37 37 36 36 36 36 35 35
19 19 20 21 21 22 22 23 24 24 25 26 27 28 28 29 30 30 31 31 31 32 32 33 33 33 33 33 33 34 34 34 34 34 34 34 35 35 34 35 35 34 34 34
17 17 17 17 18 19 20 21 21 22 22 23 25 26 27 28 28 28 29 29 30 31 32 33 32 32 32 32 32 32 33 33 33 32 32 32 32 32 32 32 32 33 33 33
16 15 15 15 17 18 19 20 20 20 20 21 22 23 25 26 27 27 28 28 29 28 27 28 29 30 30 30 30 31 31 31 30 30 30 30 30 30 30 30 31 31 31 31
13 13 13 14 15 16 17 17 17 18 19 19 20 21 23 23 23 25 26 25 24 24 25 26 26 27 28 29 29 30 29 29 29 29 29 29 29 29 29 30 31 31 31 32
11 11 11 11 12 13 13 14 14 15 16 16 16 17 17 18 19 20 21 21 22 22 22 23 23 24 25 26 27 27 27 27 27 27 27 28 28 29 29 29 30 31 31 32
9 9 9 9 10 10 11 12 12 14 14 14 14 14 14 16 17 17 18 19 20 20 20 20 20 22 23 23 24 24 25 25 26 26 26 26 27 28 28 29 29 30 31 31
8 8 8 8 9 9 10 10 10 10 11 12 12 13 14 15 15 16 16 16 16 17 18 19 20 21 21 22 22 23 24 25 25 26 26 27 27 27 28 29 29 30 30 30

GEFSNGP_500_meanwind_294.txt.gz
Wind_Speed
25 25 25 24 23 23 23 21 20 19 20 20 19 18 17 17 17 17 17 18 18 18 17 17 17 17 16 16 16 16 15 15 15 15 15 15 14 14 14 14 14 14 13 13
26 26 27 27 26 25 24 24 23 23 22 23 22 21 20 20 20 20 20 20 20 20 20 20 19 19 19 18 18 18 18 18 18 18 17 17 17 16 16 16 16 15 15 14
27 28 27 28 27 26 26 26 26 26 25 25 24 23 23 23 23 23 23 23 23 23 23 22 21 21 21 20 20 20 20 20 20 20 20 19 19 18 17 17 16 16 15 15
28 29 29 29 27 26 26 27 28 28 27 27 27 26 26 26 26 26 26 26 26 26 25 24 24 24 23 22 22 21 21 22 22 22 21 21 21 21 20 19 18 18 17 17
30 30 30 31 29 27 27 28 29 29 28 28 28 28 28 28 27 27 27 27 27 27 27 26 26 26 25 25 24 23 23 23 23 23 22 22 21 21 20 20 19 19 19 19
31 31 32 32 30 29 29 31 30 29 29 29 29 29 29 28 28 28 28 28 28 28 29 28 27 27 27 26 26 25 24 24 24 24 24 23 23 22 22 21 21 21 21 20
32 32 33 33 32 31 31 32 30 30 30 30 30 30 30 29 29 29 29 29 29 29 29 30 29 29 28 27 27 27 26 26 25 25 25 24 24 24 24 24 23 23 23 23
33 33 34 33 33 32 32 32 32 31 32 32 32 32 32 31 31 30 30 30 31 30 31 31 31 30 30 29 29 29 28 27 27 26 26 25 25 26 27 26 25 25 25 25
35 35 35 34 34 34 34 34 33 33 34 34 34 33 33 33 32 32 32 32 31 31 32 32 32 32 32 31 30 30 29 28 28 28 28 27 27 27 26 26 27 27 27 27
36 35 35 35 35 35 35 35 35 35 35 36 36 35 34 34 34 33 32 32 33 32 33 33 33 33 33 32 32 32 31 30 29 29 29 28 28 28 28 27 27 27 27 27
36 35 35 35 35 35 35 35 35 35 35 35 36 35 35 35 35 34 34 34 34 35 34 34 34 34 34 34 34 33 32 32 31 31 31 30 30 29 29 29 29 29 29 29
35 34 35 35 35 35 36 36 35 35 35 36 35 35 35 35 35 35 35 35 35 35 35 35 34 33 33 34 34 33 33 33 32 32 32 31 31 31 31 31 31 31 31 31
34 34 34 33 34 35 35 35 36 35 35 36 37 37 36 36 36 36 36 36 36 36 35 35 35 34 33 34 34 34 34 34 34 34 33 32 32 32 32 32 32 32 32 32
34 34 33 33 33 34 34 34 35 36 36 36 37 37 37 36 37 37 37 36 36 36 36 36 36 36 35 35 35 35 34 33 33 33 33 33 33 33 33 33 33 33 33 33
33 33 33 33 33 33 33 34 34 35 36 37 37 37 37 37 36 36 37 37 36 36 36 37 37 37 37 36 35 34 33 33 33 33 34 34 34 34 34 34 34 34 34 34
32 32 32 32 33 32 32 32 33 33 34 34 34 35 36 36 35 34 35 35 35 35 35 35 36 36 36 36 35 34 34 34 34 33 34 34 35 35 34 34 33 33 34 33
30 30 30 30 30 30 31 31 32 31 32 32 32 33 33 34 33 32 32 33 33 34 34 34 34 35 35 35 35 35 35 34 34 34 35 35 35 35 35 35 35 34 34 33
29 30 30 29 29 29 30 29 30 30 31 31 30 31 31 31 31 32 32 32 32 32 33 33 33 34 34 34 34 35 36 35 34 34 34 35 35 35 36 36 36 36 35 34
27 27 28 28 28 29 28 28 29 29 28 29 29 29 30 29 29 30 31 31 31 31 31 31 31 32 33 34 35 36 36 36 35 35 36 36 36 35 36 36 37 36 35 36
25 25 26 27 27 26 25 25 26 26 26 27 28 28 28 28 28 28 28 29 30 30 30 31 31 32 33 34 34 35 35 35 35 35 35 35 35 35 35 36 36 36 36 37
22 22 23 23 23 23 22 22 22 23 24 24 25 25 25 26 26 27 27 27 27 28 28 29 29 30 31 32 32 33 34 34 34 34 34 35 35 35 35 35 36 36 36 36
19 19 19 19 19 19 20 20 20 20 21 21 22 22 22 23 24 25 24 24 25 26 26 27 27 28 28 29 29 30 31 32 32 33 33 33 33 33 33 34 34 35 35 35
17 17 17 16 16 16 17 17 18 19 19 20 20 19 19 20 21 21 21 22 23 23 23 23 24 25 26 27 27 28 29 30 31 31 31 31 31 32 32 32 32 32 33 33
14 14 13 13 14 14 14 15 15 16 16 16 16 16 16 16 17 17 18 19 19 20 20 20 22 23 24 25 26 27 27 28 29 30 29 29 29 30 31 31 32 32 33 32
12 12 12 11 11 11 11 11 11 11 12 12 13 13 13 13 14 15 16 17 18 19 19 19 20 21 22 23 23 24 25 25 26 26 26 27 28 29 30 31 31 31 31 30
11 11 10 9 9 9 8 8 9 9 9 10 10 10 11 11 12 13 14 15 16 17 17 18 18 19 20 20 20 21 22 22 23 24 25 26 27 28 29 29 30 30 29 29
8 8 9 9 9 8 8 8 8 8 9 9 9 10 11 12 13 13 13 14 15 15 16 16 17 17 17 17 18 18 19 21 22 23 24 25 26 27 28 28 28 29 29 30

GEFSNGP_500_meanwind_300.txt.gz
Wind_Speed
22 21 20 20 20 18 19 20 21 20 20 21 21 19 20 20 19 19 20 21 22 22 21 20 21 21 20 21 20 20 20 18 18 17 17 17 17 17 16 16 16 16 15 14
24 22 22 22 22 21 22 23 23 23 24 24 25 23 24 23 22 21 22 23 23 23 23 23 23 23 22 22 22 22 21 20 20 19 19 18 18 18 18 18 18 17 16 16
24 24 25 26 24 23 24 25 24 24 26 26 27 26 26 25 25 25 24 25 25 25 25 25 25 24 24 24 24 23 23 22 22 21 20 20 20 20 20 20 20 19 18 18
26 25 28 26 26 26 27 26 26 27 29 28 29 28 28 27 27 26 27 27 27 27 26 26 26 25 25 25 25 25 24 23 23 22 22 21 21 21 21 21 21 21 21 20
27 27 27 26 26 26 26 28 27 29 29 29 30 31 31 29 28 28 28 28 28 28 27 27 26 26 26 26 26 27 26 25 24 24 24 23 22 22 22 22 22 22 21 21
29 27 27 28 28 27 27 30 30 31 31 31 29 30 31 31 30 28 28 29 29 29 29 28 28 28 28 28 28 27 27 27 26 25 25 25 23 23 23 23 24 23 23 23
29 28 28 29 29 27 29 32 31 32 32 31 29 30 32 33 32 31 30 30 31 31 31 31 30 30 30 30 30 29 28 27 27 27 26 26 25 24 24 24 25 25 25 25
29 29 30 31 30 30 31 33 33 33 33 32 31 32 33 33 33 32 32 31 32 32 32 32 33 32 32 31 30 30 30 29 29 29 28 27 27 26 26 26 26 26 26 26
31 31 30 31 33 33 33 34 34 34 34 35 34 35 35 35 34 34 33 32 33 33 33 33 33 33 33 33 32 31 31 31 31 31 30 29 29 28 27 27 27 26 27 27
33 33 33 34 34 34 35 35 35 35 36 36 37 36 36 35 35 35 35 34 34 34 34 34 34 34 34 34 35 34 33 32 32 32 31 30 29 29 29 28 28 28 28 29
34 33 35 37 35 36 36 37 38 37 37 37 38 37 37 37 37 36 36 36 36 35 35 35 35 36 36 35 35 35 34 33 32 32 31 31 29 29 29 30 30 30 31 31
36 34 35 37 36 36 37 38 38 38 38 38 38 37 37 38 37 37 37 37 37 36 37 37 37 36 36 35 34 34 33 33 32 32 32 31 30 30 30 30 31 32 33 33
35 35 35 36 37 37 37 37 38 39 39 38 37 38 38 38 38 38 38 38 37 37 37 37 36 35 35 35 34 34 34 33 34 33 33 33 32 31 31 31 31 32 32 32
34 35 35 36 37 38 38 38 38 38 38 38 38 38 38 38 38 39 38 37 36 36 35 35 35 35 35 35 35 35 34 34 34 34 34 34 34 33 33 33 32 32 33 32
35 36 36 36 36 36 37 37 37 36 36 37 37 38 38 38 37 37 36 35 35 35 34 34 34 34 35 35 35 35 35 35 35 35 36 35 35 35 35 35 34 34 34 34
34 35 35 35 34 34 34 34 34 34 34 34 35 35 35 36 36 36 35 34 34 34 34 33 33 33 34 34 34 34 35 35 36 37 37 36 36 36 35 35 35 34 34 34
32 32 33 33 33 33 33 34 34 34 33 33 33 33 33 34 34 34 33 33 34 34 33 33 33 33 33 33 33 33 34 34 35 36 36 36 36 36 36 36 36 36 35 35
31 31 31 32 32 32 33 33 32 33 32 32 31 31 32 33 32 32 32 32 32 32 32 31 31 31 32 32 32 32 32 33 33 33 33 34 35 36 36 37 37 37 36 35
30 30 30 30 30 30 30 30 31 31 30 30 29 29 30 31 31 30 31 31 31 30 30 30 30 30 30 30 31 32 32 32 32 32 33 32 33 35 36 37 36 36 36 36
28 27 27 27 28 28 28 28 28 27 27 27 28 28 28 28 27 28 28 28 28 28 27 27 28 29 30 30 30 30 30 31 31 31 32 32 32 33 33 33 34 34 35 35
26 26 25 26 26 25 25 24 25 25 25 25 25 26 26 26 26 26 26 26 26 27 26 26 26 27 27 28 28 29 29 30 30 30 30 31 31 31 31 32 33 34 35 34
24 24 24 23 23 23 23 23 24 23 23 23 24 25 25 25 25 25 25 25 25 25 25 24 24 25 25 25 25 26 25 26 27 28 29 29 29 30 31 32 33 33 34 34
23 22 22 21 21 21 21 21 21 21 21 22 22 22 22 23 23 24 23 23 23 22 22 22 22 23 23 24 24 24 24 25 25 26 27 28 28 29 30 31 31 31 32 32
19 19 19 18 18 18 18 18 18 19 19 19 19 19 19 20 20 20 21 21 20 20 20 20 20 21 22 22 22 23 23 24 25 25 26 26 27 28 29 30 30 31 32 32
16 16 16 16 16 16 16 16 15 15 16 17 17 18 18 18 19 19 18 18 19 19 19 19 20 20 21 22 22 23 23 23 24 24 25 25 26 27 27 29 31 31 31 30
15 15 14 14 14 14 15 15 16 16 15 16 17 17 17 18 17 17 17 17 17 17 17 18 19 20 21 21 21 21 21 22 22 23 24 25 26 27 27 28 29 30 30 30
13 13 13 12 12 13 14 14 15 15 14 13 14 15 15 15 15 15 15 14 15 16 17 19 20 20 21 21 21 22 22 23 23 23 24 25 26 27 27 28 29 30 29 30

GEFSNGP_500_meanwind_306.txt.gz
Wind_Speed
20 20 20 20 21 21 21 20 20 19 20 21 21 20 20 20 20 20 17 17 18 18 18 18 19 18 19 20 20 20 19 18 18 18 17 17 16 15 15 14 14 14 14 14
22 22 22 22 22 23 23 22 22 21 22 22 23 22 22 22 22 21 20 20 21 20 20 21 21 21 21 22 21 22 21 20 19 20 19 19 18 18 17 17 16 16 16 15
25 24 25 24 22 22 22 23 24 23 23 23 23 23 24 24 24 25 23 23 23 23 22 23 23 23 23 23 23 23 23 22 22 22 21 21 21 21 20 19 18 18 17 18
26 26 27 24 24 24 25 25 25 25 24 24 24 25 25 25 25 24 24 24 25 25 25 25 25 25 24 24 25 25 24 24 24 24 23 23 23 22 22 21 21 20 20 20
28 28 27 26 26 26 27 28 28 27 26 25 25 26 27 27 26 26 27 27 27 27 27 27 27 26 26 26 26 26 26 26 26 26 25 24 25 24 23 23 22 22 22 22
29 29 29 27 27 27 28 29 29 29 29 28 27 28 28 28 28 28 29 29 28 27 28 29 29 28 27 27 28 27 27 27 27 27 26 26 26 26 25 25 24 24 24 23
29 29 29 27 27 28 30 30 29 29 30 30 29 30 29 30 30 31 31 31 30 29 29 29 29 29 29 28 28 29 28 29 29 28 28 27 27 26 25 25 26 25 25 25
30 30 30 27 27 28 30 30 30 31 31 31 30 30 31 31 32 32 32 32 31 30 30 30 30 30 31 30 30 31 31 30 30 30 29 28 28 27 27 27 27 26 26 26
31 31 30 29 29 30 30 30 31 31 31 31 31 32 32 32 32 32 32 32 31 31 31 32 32 32 32 32 31 32 31 30 30 30 30 29 28 28 28 28 28 27 27 27
31 31 30 31 30 30 30 31 32 32 33 32 32 33 33 33 32 32 32 32 32 31 32 33 34 34 34 33 33 32 31 30 30 30 30 30 29 29 28 28 28 29 27 27
31 31 31 31 31 31 31 31 32 33 33 34 33 32 32 32 33 33 32 33 33 32 32 33 33 34 34 34 34 33 32 32 32 31 31 31 30 30 29 28 28 29 29 29
32 32 32 32 32 32 33 33 33 33 34 34 33 32 33 34 34 34 34 34 34 33 33 34 34 34 34 34 34 34 34 34 33 32 31 31 30 29 30 30 29 30 30 29
32 31 31 32 32 33 33 33 34 34 33 33 34 33 33 34 35 36 35 35 34 34 34 34 34 34 33 34 34 34 33 34 33 32 31 31 30 30 30 30 30 30 29 29
31 31 31 32 32 33 34 33 33 34 34 33 33 33 34 35 35 34 34 35 35 35 35 35 34 34 33 33 33 33 32 32 31 31 32 31 31 31 31 31 31 31 31 31
31 31 31 32 32 33 33 33 32 33 33 32 32 33 33 33 34 34 34 35 35 34 34 33 33 32 32 32 31 31 30 31 31 31 31 31 31 31 31 32 32 32 33 33
30 31 33 33 32 32 32 33 33 33 33 32 32 32 32 32 33 33 33 33 33 33 32 33 32 32 32 32 31 30 31 31 31 30 31 31 31 31 31 32 32 32 32 33
30 30 30 30 30 31 32 33 34 33 32 30 31 31 32 32 32 33 32 31 31 31 32 32 32 31 30 31 31 31 31 31 30 30 30 31 31 31 31 32 32 32 31 32
29 29 29 30 30 31 31 32 32 32 31 30 30 31 31 31 31 32 32 31 30 30 30 31 31 30 30 29 29 29 30 30 29 29 30 30 31 31 31 31 30 30 30 30
29 30 30 29 29 30 30 31 30 30 30 30 30 30 31 31 30 30 30 30 29 30 30 29 30 29 29 29 29 29 29 29 29 29 29 30 31 31 31 31 30 30 29 30
28 29 29 29 28 28 28 29 29 30 31 31 31 29 29 29 29 29 29 29 28 28 29 29 29 29 28 27 27 28 28 28 28 28 29 29 30 30 30 29 28 28 28 29
26 27 27 27 27 27 27 28 28 28 29 29 29 28 28 28 28 28 28 27 27 27 27 27 28 27 26 26 26 26 27 27 27 27 27 28 28 28 28 27 27 27 27 28
24 25 26 26 26 26 26 27 26 26 26 26 27 27 27 26 26 26 26 26 25 26 26 26 26 25 24 24 25 25 25 25 25 25 25 25 26 27 26 26 26 27 27 28
22 23 23 23 23 23 23 23 23 23 23 24 24 24 24 24 23 24 24 24 24 25 24 24 24 24 23 23 23 24 24 24 24 24 25 25 25 25 25 26 26 27 28 29
19 20 20 20 20 20 20 21 21 21 21 21 21 22 22 22 21 21 21 22 22 21 21 22 23 22 22 22 23 23 23 23 23 24 25 25 24 25 25 26 27 27 28 29
17 16 17 18 18 18 18 18 19 19 19 19 19 20 19 18 18 18 18 19 19 19 19 19 19 19 20 21 22 22 22 22 23 23 24 24 25 25 25 26 27 28 29 29
16 16 15 15 15 14 14 14 15 15 16 16 17 17 15 15 15 15 16 16 16 17 18 18 19 19 20 21 21 20 21 22 23 23 24 24 25 25 25 25 26 27 27 27
15 15 14 14 14 14 14 14 14 14 15 14 14 13 13 13 14 14 14 15 15 16 16 17 17 18 20 19 19 19 20 21 22 23 23 23 24 23 24 25 26 26 26 27

GEFSNGP_500_meanwind_312.txt.gz
Wind_Speed
21 20 20 19 20 20 20 20 19 18 18 18 18 17 17 17 17 17 17 18 19 19 19 19 20 20 21 20 20 20 21 22 22 22 22 22 22 22 21 21 21 21 21 20
22 22 22 21 20 20 21 21 20 19 19 19 18 18 18 18 19 20 20 20 21 21 21 22 22 22 22 22 22 23 23 23 23 23 23 23 23 23 22 22 21 22 22 22
24 23 23 23 21 21 22 22 21 21 20 21 21 21 21 21 21 22 22 23 23 23 23 24 24 24 25 25 25 25 25 25 25 24 24 25 24 24 24 24 23 23 24 24
25 25 27 24 23 23 23 22 23 23 23 24 23 23 22 22 23 23 24 25 25 26 26 25 26 26 27 27 27 27 27 27 26 26 26 26 26 26 26 25 25 25 24 24
27 28 28 26 25 25 25 24 24 25 25 26 25 25 25 25 25 26 26 26 27 28 28 28 28 27 28 28 28 28 28 28 28 28 27 27 27 27 27 27 27 26 26 25
28 28 28 26 25 25 26 26 26 27 28 28 28 27 26 27 28 28 28 27 27 28 28 29 29 29 29 30 30 30 29 29 29 29 28 28 28 28 28 28 28 28 28 27
29 29 29 27 27 27 27 27 27 28 28 28 29 29 28 29 28 29 29 29 29 30 30 30 30 30 30 30 30 30 29 29 29 29 29 29 29 29 29 29 29 29 29 28
30 30 30 28 28 28 28 27 27 27 28 29 29 30 30 30 29 29 30 30 30 30 30 31 31 30 30 31 30 31 30 30 30 30 30 30 30 30 30 29 29 29 29 29
30 30 29 29 29 29 28 28 28 28 28 29 29 29 30 30 30 31 31 30 30 30 31 31 32 32 32 32 31 31 31 31 31 31 31 31 31 31 30 30 30 30 29 29
31 30 29 29 29 29 29 28 28 28 28 28 29 29 30 31 31 31 32 31 31 32 32 32 33 33 33 32 31 31 31 30 30 30 30 30 31 30 30 30 30 30 30 30
31 30 30 29 29 29 29 29 28 28 29 29 30 31 31 31 31 32 33 32 32 32 33 33 33 33 33 33 33 31 30 30 30 30 29 30 30 30 30 31 31 31 30 30
31 30 30 29 29 29 30 30 30 30 30 30 30 31 31 32 32 32 32 32 32 33 33 33 33 32 32 33 33 32 31 30 30 30 29 29 30 29 29 30 31 31 31 31
30 29 29 30 30 30 30 31 31 31 31 31 31 31 31 32 32 33 32 33 33 33 33 33 33 33 33 33 33 32 31 30 30 30 30 30 30 29 29 30 30 31 32 32
29 29 30 30 31 31 31 31 32 31 31 31 32 32 32 32 32 32 33 33 33 33 33 33 33 33 33 33 33 32 32 31 31 30 30 30 30 30 30 30 30 30 31 31
29 29 29 30 30 30 30 30 30 30 31 31 32 32 32 32 32 33 33 34 34 34 33 33 32 33 33 34 33 32 32 31 31 30 29 29 29 30 30 30 30 30 30 30
28 28 28 29 29 29 29 30 30 30 30 31 31 32 32 32 33 33 34 34 35 35 34 33 33 33 34 34 33 33 31 30 29 29 29 29 30 30 30 30 30 30 31 31
27 27 28 28 29 28 29 30 30 30 30 30 30 31 31 31 32 32 33 34 34 35 34 34 33 33 32 32 32 31 30 29 29 29 29 29 30 30 30 30 30 31 31 31
27 27 28 28 28 28 28 29 29 30 30 30 31 31 31 31 31 31 32 32 33 33 33 33 32 32 32 32 31 30 29 29 29 29 30 30 30 30 30 30 31 31 30 30
27 28 27 28 28 27 28 28 29 29 29 29 29 29 30 30 31 31 31 32 32 32 32 31 32 31 30 29 30 30 29 29 28 29 30 30 30 30 31 31 30 31 30 30
25 26 26 27 27 27 28 28 28 28 28 28 28 29 29 29 30 30 31 31 31 31 30 31 30 28 28 28 29 29 29 29 28 28 29 29 29 29 29 29 29 29 29 29
23 23 23 23 25 26 26 26 26 27 28 28 28 28 28 28 29 29 29 29 30 30 30 29 28 27 27 27 27 27 28 28 27 27 27 28 28 27 27 28 28 28 28 27
22 22 22 22 23 24 25 25 26 27 27 26 26 26 26 27 27 27 27 28 28 28 27 27 26 26 26 26 25 26 26 26 26 26 27 27 27 27 27 27 27 27 27 27
22 22 22 23 24 24 24 24 24 24 24 25 25 25 25 25 25 25 25 26 26 25 25 25 24 24 24 24 24 25 26 27 27 27 27 27 28 28 28 27 27 28 27 28
21 21 21 21 22 22 23 23 23 23 23 24 25 24 23 23 23 24 24 24 23 23 23 23 23 23 23 23 24 25 26 26 26 26 27 27 28 27 27 27 28 28 28 28
20 20 19 19 20 21 20 21 21 21 21 21 22 22 22 21 21 21 21 21 20 20 21 21 22 22 22 22 23 24 24 25 25 25 26 26 26 26 27 28 28 27 27 27
18 19 19 19 19 19 19 19 20 20 20 19 19 19 20 19 19 19 19 19 19 20 20 20 20 20 21 22 23 24 24 25 25 25 25 26 26 26 26 26 25 26 26 26
17 17 18 18 18 18 17 17 17 18 17 17 16 17 17 18 18 18 19 19 19 19 19 19 20 20 21 22 23 23 24 25 25 25 25 25 25 25 25 25 25 25 25 25